Preview of NWS' New Version of Forecast
This preview is not operational and should not be used for support decisions.

Regional Weather Roundup (RWR)

Issued by National Weather Service (NWS)

                            
000
ASUS45 KBOU 190510
RWRCO 

WEATHER ROUNDUP FOR COLORADO
NATIONAL WEATHER SERVICE DENVER/BOULDER CO
1100 PM MDT TUE JUN 18 2019

NOTE: "FAIR" INDICATES FEW OR NO CLOUDS BELOW 12000 FEET WITH NO
SIGNIFICANT WEATHER AND/OR OBSTRUCTIONS TO VISIBILITY.

COZ001>005-013-030-031-190600-
...NORTHWEST COLORADO...
  
CITY           SKY/WX    TMP DP  RH WIND       PRES   REMARKS
CRAIG          FAIR      51  48  89 E5        30.17R                  
HAYDEN         CLOUDY    49  46  90 E14       30.20R                  
MEEKER         FAIR      50  47  89 NE6       30.18F                  
RANGELY        LGT RAIN  58  55  88 E10       30.10R                  
RABBIT EARS PA NOT AVBL                                               
STEAMBOAT SPGS CLOUDY    46  46  98 E6        30.20F                  
WALDEN         CLOUDY    43  39  87 S5        30.26S                  
$$

COZ006>008-011-190600-
...WEST CENTRAL VALLEYS...
  
CITY           SKY/WX    TMP DP  RH WIND       PRES   REMARKS
GRAND JUNCTION FAIR      64  50  60 SE13      30.09R                  
MONTROSE       CLOUDY    56  47  71 SE10      30.20R                  
EAGLE          FAIR      51  48  89 SE3       30.24R                  
RIFLE          CLOUDY    55  50  83 VRB3      30.19R                  
DELTA          FAIR      60  48  65 E6        30.15S                  
NUCLA          FAIR      55  46  71 E10       30.19R                  
$$

COZ017>023-064>068-190600-
...SOUTHWEST COLORADO...
  
CITY           SKY/WX    TMP DP  RH WIND       PRES   REMARKS
DURANGO        FAIR      52  41  66 CALM      30.17F                  
CORTEZ         FAIR      55  43  63 NE5       30.14F                  
PAGOSA SPRINGS FAIR      49  41  74 CALM      30.25R                  
TELLURIDE      FAIR      45  41  87 SE5       30.36F                  
WOLF CREEK PAS MOCLDY    37  32  81 N3        30.52S                  
$$

COZ009-010-012-014-032>034-037-058>063-190600-
...CENTRAL COLORADO...
  
CITY           SKY/WX    TMP DP  RH WIND       PRES   REMARKS
ASPEN          LGT RAIN  48  42  80 SE8       30.28F                  
BUENA VISTA    MOCLDY    51  38  61 NW7       30.26R                  
COPPER MTN     SNOW      37  36  93 W13       30.44S VSB<1/4          
BERTHOUD PASS  CLOUDY    32  21  64 NW22G31   30.42R WCI  19          
COTTONWOOD PAS FAIR      45  36  70 NW8       30.35R                  
GUNNISON       MOCLDY    48  46  93 NW5       30.29R                  
GRANBY         CLOUDY    45  44  95 CALM      30.27S                  
KREMMLING      NOT AVBL                                               
LEADVILLE      CLOUDY    40  37  89 N6        30.35R                  
MONARCH PASS   FOG       34  32  93 MISG      30.55S VSB 1/2          
SALIDA         MOCLDY    56  42  58 CALM      30.29F                  
SUNLIGHT       FAIR      37  32  81 W5        30.43S                  
WILKERSON PASS CLOUDY    39  32  75 W6        30.42R                  
$$

COZ069>075-190600-
...SAN LUIS VALLEY/SANGRE DE CRISTO MOUNTAINS...
  
CITY           SKY/WX    TMP DP  RH WIND       PRES   REMARKS
ALAMOSA        FAIR      51  40  65 NE5       30.23R                  
DEL NORTE      CLOUDY    51  42  71 W5        30.27S                  
LA VETA PASS   NOT AVBL                                               
SAGUACHE       FAIR      45  41  87 CALM      30.28R                  
$$

COZ035-036-038>040-190600-
...NORTHERN COLORADO FRONT RANGE...
  
CITY           SKY/WX    TMP DP  RH WIND       PRES   REMARKS
DENVER INTL AP FAIR      57  52  83 SW9       30.04S                  
AURORA         PTCLDY    55  52  92 S8        30.06F                  
FRONT RANGE AP FAIR      56  53  87 SW9       30.06S                  
ERIE MUNI ARPT FAIR      56  49  78 CALM      30.08S                  
BOULDER MUN AP FAIR      59  46  63 CALM      30.03S                  
CENTENNIAL     FAIR      57  50  77 SW9       30.07F                  
BROOMFIELD     FAIR      55  52  88 W6        30.06S                  
FORT COLLINS     N/A     53  51  93 VRB3      30.03F                  
LONGMONT       FAIR      56  50  80 CALM      30.04S                  
$$

COZ041-046-047-076>085-087-088-190600-
...PIKES PEAK/PALMER DIVIDE AND SOUTHERN FOOTHILLS...
  
CITY           SKY/WX    TMP DP  RH WIND       PRES   REMARKS
COLO. SPRINGS  FAIR      53  47  79 N9        30.12F                  
A. F. ACADEMY  MOCLDY    50  50 100 N5        30.12F                  
SCHRIEVER AFB  NOT AVBL                                               
CHEYENNE MTN   NOT AVBL                                               
ELLICOTT         N/A    N/A N/A N/A N7        30.10R                  
FALCON         FAIR      49  47  94 NW9       30.16S                  
FORT CARSON    PTCLDY    55  48  76 W8        30.08F                  
LIMON          FAIR      51  50  96 W6        30.04F                  
MONUMENT HILL  FAIR      46  45  93 SW9       30.16F                  
CANON CITY     FAIR      55  52  88 SW5       30.10R                  
WALSENBURG     NOT AVBL                                               
TRINIDAD       FAIR      52  50  93 W9        30.10F                  
$$

COZ042>045-048>051-090-091-190600-
...NORTHEAST COLORADO...
  
CITY           SKY/WX    TMP DP  RH WIND       PRES   REMARKS
GREELEY ARPT   FAIR      57  54  89 W3        30.02F                  
AKRON          FAIR      55  54  96 CALM      30.01F                  
BURLINGTON     FAIR      61  58  90 E5        30.00R                  
WRAY           RAIN      61  61 100 SE9       29.97F                  
YUMA           MOCLDY    59  46  63 W5        29.98F                  
STERLING       FAIR      55  55 100 S3        29.98S FOG              
HOLYOKE        CLOUDY    63  61  94 CALM      29.97F FOG              
FORT MORGAN    FAIR      53  52  94 W3        30.01F                  
$$

COZ086-089-092>099-190600-
...SOUTHEAST COLORADO...
  
CITY           SKY/WX    TMP DP  RH WIND       PRES   REMARKS
PUEBLO         FAIR      59  55  87 NW7       30.05F                  
LA JUNTA       FAIR      62  58  86 SW7       30.01F                  
LAMAR          MOCLDY    64  62  93 NW5       29.96R                  
SPRINGFIELD      N/A     57  53  86 W12       29.97S                  
$$